Detroit Lakes, MN

7:21 PM CST on January 22, 2017 (GMT -0600)
Detroit Lakes

Weather History for KDTL - March, 2013

Change the Weather History Date:

Friday, March 29, 2013

  Actual Average Record
Temperature  
Mean Temperature 36 °F -  
Max Temperature 46 °F 40 °F 72 °F (1986)
Min Temperature 26 °F 21 °F -16 °F (1969)
Degree Days  
Heating Degree Days 29    
Moisture  
Dew Point 30 °F    
Average Humidity 79    
Maximum Humidity 100    
Minimum Humidity 57    
Precipitation  
Precipitation 0.00 in - - ()
Sea Level Pressure  
Sea Level Pressure 30.13 in    
Wind  
Wind Speed 4 mph (SE)    
Max Wind Speed 9 mph    
Max Gust Speed -    
Visibility 8 miles    
Events Rain    
Averages and records for this station are not official NWS values.
T = Trace of Precipitation, MM = Missing Value Source: NWS Daily Summary

Daily Weather History Graph

Daily Weather History Graph

Search for Another Location

Airport or City:

Trip Planner

Search our weather history database for the weather conditions in past years. The results will help you decide how hot, cold, wet, or windy it might be!

Date:

Astronomy

Mar. 29, 2013 Rise Set
Actual Time 7:08 AM CDT 7:49 PM CDT
Civil Twilight 6:37 AM CDT 8:19 PM CDT
Nautical Twilight 6:01 AM CDT 8:56 PM CDT
Astronomical Twilight 5:23 AM CDT 9:34 PM CDT
Moon 11:03 PM CDT (3/29) 8:06 AM CDT (3/29)
Length of Visible Light 13h 42m
Length of Day
12h 40m
Waning Gibbous, 93% of the Moon is Illuminated
Mar 29
Waning Gibbous
Apr 2
Last Quarter
Apr 10
New
Apr 18
First Quarter
Apr 25
Full

Hourly Weather History & Observations

Time (CDT) Temp. Windchill Dew Point Humidity Pressure Visibility Wind Dir Wind Speed Gust Speed Precip Events Conditions
12:16 AM 33.8 °F - 28.4 °F 81% 30.23 in 10.0 mi Calm Calm - N/A   Overcast
12:35 AM 33.8 °F - 28.4 °F 81% 30.23 in 10.0 mi Calm Calm - N/A   Overcast
12:55 AM 32.0 °F - 28.4 °F 87% 30.23 in 10.0 mi Calm Calm - N/A   Overcast
1:16 AM 32.0 °F 28.7 °F 28.4 °F 87% 30.23 in 10.0 mi East 3.5 mph - N/A   Mostly Cloudy
1:35 AM 32.0 °F - 28.4 °F 87% 30.23 in 10.0 mi Calm Calm - N/A   Mostly Cloudy
1:55 AM 33.8 °F 30.8 °F 28.4 °F 81% 30.23 in 10.0 mi ESE 3.5 mph - N/A   Overcast
2:16 AM 33.8 °F 29.6 °F 26.6 °F 75% 30.23 in 10.0 mi SE 4.6 mph - N/A   Mostly Cloudy
2:35 AM 33.8 °F 28.6 °F 26.6 °F 75% 30.23 in 10.0 mi SE 5.8 mph - N/A   Overcast
2:55 AM 32.0 °F 26.4 °F 26.6 °F 80% 30.22 in 10.0 mi SE 5.8 mph - N/A   Mostly Cloudy
3:16 AM 32.0 °F 26.4 °F 26.6 °F 80% 30.22 in 10.0 mi SE 5.8 mph - N/A   Scattered Clouds
3:36 AM 32.0 °F 27.5 °F 26.6 °F 80% 30.22 in 10.0 mi SE 4.6 mph - N/A   Clear
3:55 AM 32.0 °F 27.5 °F 26.6 °F 80% 30.21 in 10.0 mi ESE 4.6 mph - N/A   Clear
4:16 AM 32.0 °F 27.5 °F 26.6 °F 80% 30.20 in 10.0 mi SE 4.6 mph - N/A   Clear
4:35 AM 32.0 °F 28.7 °F 26.6 °F 80% 30.20 in 10.0 mi SE 3.5 mph - N/A   Clear
4:56 AM 32.0 °F 27.5 °F 26.6 °F 80% 30.20 in 10.0 mi SE 4.6 mph - N/A   Clear
5:15 AM 30.2 °F 26.7 °F 24.8 °F 80% 30.20 in 10.0 mi SE 3.5 mph - N/A   Clear
5:35 AM 30.2 °F 26.7 °F 24.8 °F 80% 30.20 in 10.0 mi SSE 3.5 mph - N/A   Clear
5:55 AM 30.2 °F 26.7 °F 24.8 °F 80% 30.20 in 10.0 mi SE 3.5 mph - N/A   Scattered Clouds
6:15 AM 28.4 °F 23.3 °F 24.8 °F 86% 30.19 in 10.0 mi SE 4.6 mph - N/A   Scattered Clouds
6:36 AM 28.4 °F 24.6 °F 24.8 °F 86% 30.19 in 10.0 mi ESE 3.5 mph - N/A   Clear
6:55 AM 28.4 °F - 24.8 °F 86% 30.19 in 7.0 mi Calm Calm - N/A   Clear
7:15 AM 26.6 °F - 23.0 °F 86% 30.19 in 5.0 mi Calm Calm - N/A   Clear
7:36 AM 26.6 °F - 23.0 °F 86% 30.20 in 5.0 mi Calm Calm - N/A   Clear
7:55 AM 28.4 °F 24.6 °F 24.8 °F 86% 30.20 in 5.0 mi SE 3.5 mph - N/A   Clear
8:15 AM 28.4 °F 24.6 °F 24.8 °F 86% 30.19 in 5.0 mi SE 3.5 mph - N/A   Clear
8:36 AM 28.4 °F 22.2 °F 26.6 °F 93% 30.19 in 7.0 mi SSE 5.8 mph - N/A   Mostly Cloudy
8:55 AM 30.2 °F 23.4 °F 26.6 °F 86% 30.19 in 5.0 mi SE 6.9 mph - N/A   Overcast
9:15 AM 30.2 °F 21.9 °F 28.4 °F 93% 30.19 in 4.0 mi SE 9.2 mph - N/A   Overcast
9:36 AM 30.2 °F 21.9 °F 30.2 °F 100% 30.18 in 0.8 mi SSE 9.2 mph - N/A   Overcast
9:55 AM 30.2 °F 23.4 °F 30.2 °F 100% 30.18 in 2.0 mi SE 6.9 mph - N/A   Overcast
10:15 AM 32.0 °F 25.6 °F 30.2 °F 93% 30.18 in 4.0 mi SE 6.9 mph - N/A   Scattered Clouds
10:36 AM 32.0 °F 26.4 °F 30.2 °F 93% 30.17 in 3.0 mi SE 5.8 mph - N/A   Overcast
10:55 AM 32.0 °F 26.4 °F 32.0 °F 100% 30.17 in 2.5 mi SE 5.8 mph - N/A   Overcast
11:15 AM 33.8 °F 28.6 °F 32.0 °F 93% 30.17 in 3.0 mi SSE 5.8 mph - N/A   Overcast
11:55 AM 35.6 °F 31.7 °F 32.0 °F 87% 30.17 in 5.0 mi SE 4.6 mph - N/A   Haze
12:15 PM 37.4 °F 33.8 °F 32.0 °F 81% 30.16 in 7.0 mi SSE 4.6 mph - N/A   Clear
12:36 PM 39.2 °F 35.9 °F 32.0 °F 75% 30.15 in 7.0 mi SSE 4.6 mph - N/A   Clear
12:55 PM 41.0 °F 36.4 °F 32.0 °F 70% 30.15 in 7.0 mi SSE 6.9 mph - N/A   Scattered Clouds
1:15 PM 41.0 °F 36.4 °F 32.0 °F 70% 30.14 in 10.0 mi SE 6.9 mph - N/A   Scattered Clouds
1:36 PM 41.0 °F 36.4 °F 32.0 °F 70% 30.13 in 10.0 mi SSE 6.9 mph - N/A   Clear
1:56 PM 42.8 °F 38.6 °F 32.0 °F 66% 30.12 in 10.0 mi SSE 6.9 mph - N/A   Clear
2:15 PM 42.8 °F 38.0 °F 32.0 °F 66% 30.11 in 7.0 mi SE 8.1 mph - N/A   Clear
2:36 PM 42.8 °F 38.0 °F 32.0 °F 66% 30.11 in 10.0 mi SE 8.1 mph - N/A   Clear
2:56 PM 42.8 °F 38.0 °F 32.0 °F 66% 30.09 in 10.0 mi SE 8.1 mph - N/A   Clear
3:15 PM 44.6 °F 39.7 °F 32.0 °F 61% 30.08 in 10.0 mi SE 9.2 mph - N/A   Clear
3:36 PM 44.6 °F 40.7 °F 32.0 °F 61% 30.08 in 10.0 mi SE 6.9 mph - N/A   Clear
3:56 PM 44.6 °F 40.7 °F 32.0 °F 61% 30.07 in 10.0 mi SE 6.9 mph - N/A   Clear
4:15 PM 44.6 °F 41.4 °F 32.0 °F 61% 30.07 in 10.0 mi SE 5.8 mph - N/A   Clear
4:36 PM 46.4 °F 42.9 °F 32.0 °F 57% 30.07 in 10.0 mi SE 6.9 mph - N/A   Clear
4:55 PM 44.6 °F 40.7 °F 32.0 °F 61% 30.07 in 10.0 mi SSE 6.9 mph - N/A   Clear
5:15 PM 46.4 °F 43.5 °F 32.0 °F 57% 30.07 in 10.0 mi South 5.8 mph - N/A   Clear
5:35 PM 46.4 °F - 32.0 °F 57% 30.07 in 10.0 mi Calm Calm - N/A   Clear
5:55 PM 44.6 °F 42.2 °F 32.0 °F 61% 30.07 in 10.0 mi South 4.6 mph - N/A   Clear
6:16 PM 44.6 °F 42.2 °F 32.0 °F 61% 30.06 in 10.0 mi SSE 4.6 mph - N/A   Clear
6:35 PM 44.6 °F 42.2 °F 32.0 °F 61% 30.06 in 10.0 mi South 4.6 mph - N/A   Clear
6:55 PM 37.4 °F 34.9 °F 32.0 °F 81% 30.06 in 7.0 mi NNW 3.5 mph - N/A   Clear
7:16 PM 39.2 °F - 32.0 °F 75% 30.05 in 7.0 mi Calm Calm - N/A   Clear
7:35 PM 37.4 °F - 33.8 °F 87% 30.04 in 5.0 mi Calm Calm - N/A Rain Light Rain
7:55 PM 41.0 °F 35.8 °F 33.8 °F 76% 30.02 in 7.0 mi South 8.1 mph - N/A Rain Light Rain
8:15 PM 41.0 °F 38.0 °F 35.6 °F 81% 30.02 in 10.0 mi ESE 4.6 mph - N/A   Clear
8:35 PM 37.4 °F 30.8 °F 33.8 °F 87% 30.01 in 10.0 mi SSE 9.2 mph - N/A   Clear
8:56 PM 39.2 °F 35.0 °F 33.8 °F 81% 30.00 in 10.0 mi SSE 5.8 mph - N/A   Clear
9:15 PM 41.0 °F 39.0 °F 33.8 °F 76% 30.01 in 10.0 mi ESE 3.5 mph - N/A   Clear
9:35 PM 39.2 °F 35.0 °F 33.8 °F 81% 30.00 in 10.0 mi SE 5.8 mph - N/A   Clear
9:56 PM 39.2 °F 37.0 °F 33.8 °F 81% 30.00 in 10.0 mi SE 3.5 mph - N/A   Clear
10:15 PM 37.4 °F 33.8 °F 33.8 °F 87% 30.00 in 10.0 mi SSE 4.6 mph - N/A   Scattered Clouds
10:35 PM 37.4 °F 32.8 °F 33.8 °F 87% 29.99 in 10.0 mi SE 5.8 mph - N/A   Scattered Clouds
10:56 PM 39.2 °F 37.0 °F 35.6 °F 87% 29.99 in 10.0 mi SE 3.5 mph - N/A   Scattered Clouds
11:15 PM 37.4 °F - 35.6 °F 93% 29.98 in 10.0 mi Calm Calm - N/A   Clear
11:35 PM 37.4 °F 33.8 °F 35.6 °F 93% 29.96 in 7.0 mi SE 4.6 mph - N/A   Clear
11:56 PM 37.4 °F - 35.6 °F 93% 29.97 in 7.0 mi Calm Calm - N/A   Clear